Wind_Speed
19 20 21 22 23 22 22 23 23 24 24 25 27 26 26 28 29 27 30 31 29 28 29 27 26 25 25 25 25 23 24 25 22 20 21 21 20 19 17 17 18 20 22 20 17 15 14 14 14 14 14 14 12 11 10 10 10 11 12 9 7 9 10 8 7 7 7 8 7 7 8 7 6 7 9 10 9 9 10 9 8 9 8 4 4
19 20 21 22 22 22 21 21 22 22 21 23 25 26 26 28 29 28 28 30 29 28 27 27 26 25 26 28 27 24 24 25 23 20 20 21 21 20 19 19 21 21 21 21 20 19 18 17 16 16 15 14 13 12 12 11 11 11 11 10 9 10 12 11 9 9 10 9 9 8 8 7 6 8 10 11 11 10 10 9 6 8 9 8 7
17 18 20 21 22 23 23 22 23 23 21 22 24 25 26 27 28 28 27 28 29 29 27 26 27 26 26 28 28 24 22 24 24 21 20 20 21 21 19 19 22 22 21 21 21 21 21 20 17 15 14 14 14 13 13 12 13 13 12 10 9 11 12 11 10 12 11 10 10 9 8 7 7 9 10 10 11 11 11 10 9 10 12 12 9
15 15 18 19 19 20 22 23 24 23 21 22 25 26 27 27 27 28 28 29 30 30 28 27 26 26 27 28 28 25 23 23 24 23 22 21 21 21 20 19 22 23 22 21 21 20 21 20 18 16 15 14 14 14 14 14 13 13 13 10 10 13 14 12 10 11 11 11 12 11 10 9 8 10 11 11 11 10 11 12 12 12 14 13 9
13 15 17 16 16 17 21 23 23 23 23 24 26 28 27 26 24 24 27 29 29 29 29 27 26 26 27 28 29 29 27 24 23 23 23 22 21 21 21 20 21 23 22 22 23 22 21 20 17 17 16 16 16 15 15 15 14 14 14 12 11 11 11 11 12 13 13 13 14 12 11 10 10 11 11 11 11 11 11 12 13 13 15 14 12
14 16 15 14 15 17 20 22 22 23 24 25 28 28 27 26 24 24 27 29 28 27 27 26 26 26 26 25 27 28 27 24 23 24 23 23 23 21 20 20 21 21 21 21 22 22 21 20 18 18 18 18 17 16 15 15 16 15 15 14 14 13 11 12 15 15 15 15 15 14 13 12 12 13 13 13 12 12 12 13 14 15 16 14 13
15 17 17 16 16 18 21 22 21 22 22 24 27 28 29 29 26 25 28 29 28 27 26 25 25 25 25 25 25 25 24 23 23 23 23 23 23 20 18 19 21 21 21 21 22 23 22 21 20 19 19 20 19 17 16 16 16 16 16 15 16 16 16 16 16 16 16 16 16 16 15 14 14 14 15 14 14 15 15 14 16 17 17 15 15
13 16 18 17 16 18 21 22 22 21 21 23 25 26 29 29 26 27 29 28 26 25 24 25 24 23 24 25 25 24 24 25 24 22 22 22 20 19 19 20 20 21 22 22 23 24 24 24 22 20 20 21 20 18 17 18 17 17 17 16 16 17 17 16 17 18 17 17 16 15 15 15 14 14 16 16 16 17 16 16 17 18 17 17 18
11 13 14 14 13 15 18 18 18 18 19 22 24 24 25 24 23 27 28 25 24 23 22 23 23 22 23 25 25 24 24 25 26 24 23 23 21 19 21 23 22 22 22 21 22 24 25 24 23 22 20 19 20 19 20 21 20 18 17 16 17 18 18 17 17 18 18 17 16 16 17 18 17 16 17 18 18 17 16 16 18 18 18 18 19
10 11 11 10 11 13 15 15 15 16 17 20 22 22 22 21 22 26 27 24 23 23 21 21 22 22 23 25 26 24 22 24 26 26 23 23 23 22 23 23 23 23 23 22 22 22 21 20 20 21 20 19 20 21 22 24 23 22 20 18 17 18 18 18 19 19 19 17 16 17 17 18 19 18 17 16 17 17 17 18 19 19 19 19 20
10 10 9 9 10 11 12 13 15 16 16 17 19 20 21 21 22 25 27 25 23 23 22 21 21 22 23 24 25 24 23 24 27 27 25 23 24 25 25 23 23 25 25 25 23 21 19 19 19 20 19 19 20 22 24 25 25 24 23 22 21 19 18 19 20 21 20 19 18 18 18 18 19 19 18 16 15 16 18 19 20 21 21 22 23
11 11 10 11 11 10 11 12 13 14 14 15 17 19 19 18 19 22 25 24 21 22 22 22 21 21 21 22 23 24 24 24 24 24 24 25 26 26 24 23 25 26 26 24 23 21 20 21 21 21 21 20 21 22 24 26 26 25 25 24 24 24 22 22 23 23 22 20 19 20 20 20 19 18 19 18 16 16 17 19 20 21 23 24 25
13 13 13 12 12 11 12 12 12 12 13 15 18 19 16 12 14 19 21 21 21 21 20 20 21 21 20 21 21 22 23 23 23 23 24 24 25 26 25 24 24 24 24 24 23 22 22 23 23 23 23 22 23 24 25 26 26 26 25 24 25 26 27 26 26 27 26 25 25 24 23 22 21 20 19 18 18 17 18 19 20 22 23 24 25
13 15 15 14 12 12 13 14 14 15 17 17 18 19 16 11 15 18 18 19 21 21 20 20 21 21 21 21 21 21 21 21 22 24 25 23 23 23 24 24 24 23 23 24 24 23 23 23 23 24 25 24 24 24 24 25 25 26 27 25 24 25 27 28 28 29 29 30 29 28 26 24 24 22 20 19 20 19 19 19 20 22 24 24 24
12 14 15 15 13 12 11 12 13 15 17 17 17 18 16 13 15 18 17 17 18 19 20 22 23 22 21 21 21 22 23 23 22 23 24 23 23 24 24 23 24 25 25 24 22 22 22 22 23 24 26 26 25 24 24 24 24 25 26 26 24 24 25 27 28 28 28 28 28 27 27 26 25 24 23 22 22 22 21 21 21 22 24 24 25
10 11 14 15 15 14 12 12 12 13 15 16 15 15 15 14 15 16 15 16 19 19 20 20 21 21 21 20 21 22 23 23 22 21 22 22 23 25 26 25 25 26 27 25 24 23 23 24 25 26 27 27 26 26 26 25 24 24 25 26 25 24 24 25 25 25 25 25 25 25 26 27 27 26 25 25 25 24 23 23 23 24 25 26 26
8 10 12 14 14 14 14 13 14 14 15 15 14 13 14 15 17 17 16 18 21 21 20 20 20 22 22 21 21 22 21 21 21 21 22 23 24 25 26 26 26 27 28 28 28 28 27 27 28 28 28 29 29 28 27 27 27 26 26 27 27 26 26 26 24 23 23 24 24 25 25 25 26 26 26 27 26 25 24 25 25 26 27 27 28
5 7 9 10 10 12 14 14 14 16 17 16 15 13 13 14 15 16 18 19 20 19 20 21 21 22 23 23 23 23 23 23 24 24 24 23 22 23 25 26 27 28 29 30 30 30 30 30 30 30 30 30 30 30 29 28 29 28 28 28 29 29 30 29 27 25 24 24 24 25 25 26 26 26 28 28 26 24 24 26 27 27 28 28 28
3 4 5 8 8 8 10 12 14 16 16 16 15 14 14 15 15 16 17 17 18 19 20 21 21 21 22 22 23 23 23 24 26 26 26 25 23 22 24 27 28 29 29 30 30 30 30 30 30 31 32 32 32 32 31 30 29 29 29 29 31 32 31 30 28 27 27 27 26 26 26 27 27 28 30 31 28 25 26 27 27 28 27 26 26
2 2 2 4 6 6 7 9 12 14 14 14 15 15 16 17 18 18 18 18 18 20 21 22 22 22 23 23 23 23 23 24 25 26 26 26 25 25 26 28 28 28 29 30 30 30 30 29 30 30 31 32 32 33 34 33 32 31 30 30 32 32 31 30 29 28 28 29 29 28 27 27 26 27 29 31 28 26 25 26 28 28 27 27 29
2 1 1 2 4 4 4 7 9 11 12 13 13 14 16 18 19 19 20 20 21 22 22 22 23 23 23 23 24 25 25 25 25 26 26 26 27 28 29 30 29 29 30 31 32 32 31 30 30 30 30 31 31 31 32 33 34 35 34 34 34 34 32 31 30 29 29 30 30 29 28 27 26 26 28 30 29 27 25 26 27 29 30 31 32
3 2 1 1 2 2 3 6 7 7 9 11 12 12 14 15 17 18 19 20 22 23 24 24 24 24 24 25 26 27 27 27 27 27 28 28 28 28 29 30 30 30 31 32 33 33 32 31 30 29 29 30 31 30 30 31 32 34 35 34 33 33 33 33 31 31 31 30 30 31 30 30 29 27 29 31 31 28 27 26 27 29 31 32 33
2 3 3 2 2 2 3 4 5 6 8 10 10 11 11 12 13 14 16 18 19 20 21 22 22 24 25 27 28 29 29 30 29 29 30 29 29 30 30 31 30 30 32 33 34 33 33 32 31 30 29 30 31 31 31 31 31 33 33 33 31 30 31 32 32 34 34 32 32 33 32 31 31 31 31 32 31 29 29 29 29 28 29 31 33
1 2 4 4 4 4 4 4 4 6 8 10 10 10 10 10 11 11 12 14 15 16 17 19 20 22 24 25 27 28 29 30 30 31 32 31 31 32 32 33 32 32 33 35 35 35 35 34 34 33 32 33 33 34 34 33 32 32 32 32 31 30 29 30 32 34 34 34 34 35 35 34 34 35 35 34 32 30 29 29 29 28 28 30 33
1 2 3 4 4 4 4 4 5 7 8 9 10 10 10 10 9 9 10 10 11 13 14 16 17 19 20 22 23 24 25 26 27 29 30 31 31 31 32 33 33 34 35 36 36 37 37 37 38 37 36 36 36 37 38 37 36 36 34 33 33 32 30 30 32 33 34 35 36 37 37 36 36 37 37 36 34 31 29 29 30 31 31 32 33
3 2 3 4 4 4 4 5 6 8 8 9 11 12 13 13 12 11 11 11 11 12 13 13 14 15 16 18 19 20 21 22 24 25 25 26 27 28 29 31 32 33 35 37 37 38 39 40 41 41 39 38 38 38 40 40 40 40 39 38 36 35 34 34 35 36 36 37 37 38 38 37 37 38 38 36 35 34 32 31 32 35 36 35 34
4 3 3 4 4 4 5 6 8 8 8 8 9 10 11 12 12 12 12 12 12 13 12 12 12 12 13 15 17 19 20 21 21 21 21 22 23 25 26 27 29 31 34 36 37 38 39 40 41 41 40 40 40 40 41 42 43 42 42 41 41 41 40 39 39 38 38 38 39 39 38 37 37 38 38 37 37 37 37 35 34 36 38 36 33
4 4 4 4 4 4 5 5 6 7 8 8 7 6 6 7 7 8 9 11 11 12 12 12 13 14 16 18 19 20 22 22 21 21 22 23 25 26 27 28 29 31 33 35 37 38 39 40 40 40 40 41 42 42 43 44 46 46 46 46 45 44 43 42 41 41 41 41 40 39 38 38 38 38 38 39 40 40 41 39 38 38 37 35 34
4 4 4 5 5 5 5 5 4 6 7 8 8 8 8 8 8 10 12 13 13 12 12 13 14 15 16 17 18 19 20 20 20 22 24 25 28 30 31 31 31 32 33 34 36 37 38 39 39 40 40 40 40 40 39 40 42 44 45 46 47 48 47 45 44 44 45 45 44 43 42 43 43 42 40 41 41 41 39 39 39 38 36 35 36
4 3 4 4 5 6 6 5 6 6 6 5 6 8 9 9 9 10 11 12 11 11 11 12 12 12 12 12 13 14 16 16 17 19 21 24 27 31 34 36 35 35 34 35 36 37 37 37 38 38 39 38 37 36 33 32 32 33 35 37 39 42 43 44 45 47 48 48 48 47 45 45 45 45 44 42 42 41 40 39 39 38 35 35 37
3 3 4 6 7 7 7 7 7 7 6 5 5 5 7 7 8 8 8 7 7 7 9 9 9 9 9 8 9 10 11 13 15 17 19 21 23 25 31 36 39 39 37 36 35 36 37 36 36 35 35 35 34 33 31 28 27 28 29 30 32 33 34 37 41 44 46 46 46 45 44 43 42 42 43 42 41 40 39 38 37 37 37 38 39
3 4 6 8 8 8 8 8 7 6 6 6 5 5 5 6 8 9 8 6 5 5 6 6 6 6 6 6 7 8 10 12 15 18 20 22 23 22 23 29 35 40 41 40 39 38 37 35 34 34 32 31 31 31 28 26 26 26 27 29 30 31 32 34 37 41 43 42 41 41 41 40 38 38 39 40 39 38 38 37 36 36 36 36 36
4 5 7 7 7 7 8 8 8 7 6 6 6 6 6 7 8 10 9 7 8 7 5 5 6 6 6 7 8 9 10 12 15 17 19 21 22 20 18 18 23 30 35 39 41 42 40 38 35 34 33 32 31 29 26 23 24 24 27 29 30 31 32 34 36 39 40 39 39 41 42 40 37 37 38 39 38 37 37 37 35 35 35 34 32
5 6 7 7 6 7 7 7 8 7 6 7 6 6 7 8 9 10 9 8 9 8 5 5 6 6 7 8 9 9 10 11 13 16 19 20 20 17 14 12 14 19 24 29 35 40 42 42 40 38 36 35 34 34 34 32 31 30 32 34 35 34 34 34 35 36 37 36 37 39 42 41 38 37 38 39 38 36 35 35 35 35 35 34 32
4 6 7 7 7 6 5 6 7 7 6 7 7 7 8 9 9 9 9 8 8 8 6 6 7 7 8 9 9 9 10 11 12 14 18 20 20 17 13 10 10 12 15 18 23 28 34 39 42 41 39 33 29 30 35 37 36 36 38 39 40 39 39 39 38 37 36 35 36 37 40 41 39 37 37 38 38 35 33 33 34 33 33 32 31
4 4 5 6 7 8 7 8 8 8 9 9 8 7 8 10 10 10 9 8 8 7 7 6 6 7 8 8 8 8 8 9 10 12 15 18 19 17 15 13 12 11 11 11 12 14 18 24 31 36 39 37 31 31 35 38 39 40 40 39 39 40 40 40 40 39 37 36 36 36 38 39 37 34 33 32 31 30 29 29 29 29 29 30 30
3 3 5 6 7 8 10 12 12 12 12 12 11 10 9 9 9 10 9 9 8 8 7 6 5 5 7 6 5 5 6 8 9 11 13 15 17 17 16 15 13 12 12 11 10 9 8 10 14 20 27 32 33 33 35 36 36 36 35 34 33 33 32 31 32 33 35 35 33 32 34 34 31 29 27 25 24 25 26 25 25 26 28 29 28
3 3 6 8 8 6 6 8 9 9 10 11 10 10 10 10 10 11 11 9 8 8 7 5 2 2 2 2 5 6 7 8 8 8 10 13 15 16 16 14 12 11 12 12 10 8 6 5 5 7 12 16 18 21 22 23 24 25 25 24 22 20 19 19 20 21 24 25 23 22 22 22 20 20 21 21 22 23 23 23 24 24 25 26 26
5 4 1 1 2 3 3 2 5 6 6 7 7 8 9 10 10 11 10 8 7 7 5 4 5 5 5 5 8 9 9 10 10 10 9 10 12 14 15 15 13 12 12 12 12 11 10 8 6 4 5 5 7 9 10 11 13 14 13 12 11 10 10 11 12 13 15 15 14 13 12 11 11 13 16 17 18 19 20 20 21 22 23 25 25
7 8 8 8 8 8 6 3 4 5 4 5 6 7 10 10 9 10 9 7 6 5 5 6 7 7 7 7 7 8 8 10 12 14 14 14 14 15 15 16 16 14 12 12 13 13 12 11 11 9 8 7 7 6 5 5 5 5 4 3 3 3 3 3 4 6 7 7 6 6 6 7 9 11 13 14 15 16 17 19 20 21 22 23 24
6 7 8 9 9 8 5 4 5 5 6 8 8 9 10 10 9 9 8 7 7 7 8 7 7 8 8 7 7 8 9 9 11 12 14 16 17 17 16 16 16 15 14 13 13 13 13 13 13 13 13 12 12 11 10 9 8 7 6 5 4 4 3 2 2 2 3 3 4 5 6 8 9 11 12 13 14 16 18 19 20 21 21 22 22
3 4 5 6 6 5 4 4 4 5 6 7 7 7 8 9 8 6 5 7 9 11 10 8 8 8 8 8 8 9 10 9 8 9 10 12 13 15 16 15 15 16 16 15 14 14 14 14 14 14 15 15 14 14 13 12 11 10 8 8 7 6 4 3 1 0 1 2 3 4 7 9 10 12 14 16 17 19 21 20 20 21 20 19 20
3 2 3 2 2 4 6 5 1 2 3 3 3 2 2 3 5 7 9 10 12 12 11 9 9 8 7 8 9 10 10 9 7 7 8 9 9 9 10 12 14 15 16 17 17 17 16 16 16 16 17 17 16 15 14 13 12 10 9 8 8 7 6 4 3 2 2 1 2 4 7 10 12 14 15 17 19 20 21 20 19 19 18 18 21
5 3 3 2 2 4 9 10 8 5 3 4 4 5 7 8 9 12 13 13 13 13 11 8 8 7 7 8 9 9 9 9 8 8 9 9 9 8 8 9 10 12 13 15 17 18 18 18 18 18 19 19 18 17 16 15 14 13 12 11 9 8 7 6 5 5 4 4 5 7 8 10 12 14 16 19 20 19 18 17 16 16 15 17 22
5 4 3 2 2 4 7 11 13 12 11 11 10 11 13 13 12 13 13 12 11 10 8 6 5 4 5 7 8 8 9 10 10 11 11 10 10 11 11 11 11 10 9 10 11 12 12 13 15 17 18 18 18 18 18 17 17 16 16 14 12 11 11 10 8 7 7 6 7 8 8 9 11 14 16 18 17 15 13 12 12 13 16 19 22
5 5 4 3 0 2 3 5 9 10 10 9 9 10 11 12 11 11 10 8 7 6 5 4 4 3 3 3 4 6 8 9 9 10 10 9 9 11 12 12 12 12 11 11 11 10 9 9 10 12 13 13 14 15 17 18 18 17 16 15 15 14 13 12 11 10 9 8 8 10 10 10 11 12 14 14 12 10 9 9 9 10 15 19 21
7 6 5 5 4 2 2 1 2 4 5 5 5 5 5 6 8 8 8 7 5 5 4 3 2 2 3 2 2 3 5 5 5 7 9 9 8 8 8 8 9 10 10 11 11 10 11 12 11 11 11 11 10 10 10 10 11 11 10 11 12 12 10 9 8 8 9 9 8 10 12 12 9 8 9 11 11 10 10 10 10 10 13 16 17
7 7 7 7 6 5 5 4 2 1 1 2 3 4 4 3 4 4 4 3 2 2 2 1 1 2 2 2 2 4 4 4 4 6 6 6 6 6 6 7 8 7 8 8 8 8 9 11 11 12 12 12 11 10 8 7 6 5 5 6 7 6 7 8 6 5 7 7 5 5 7 9 10 9 8 10 12 12 12 12 13 13 15 17 18
7 7 7 7 7 7 7 6 5 5 4 4 5 4 4 4 4 3 3 2 1 1 2 1 1 2 2 2 2 3 3 2 3 4 4 4 4 5 6 6 6 7 7 8 9 10 10 9 10 10 9 8 7 6 7 8 7 5 4 3 3 4 6 8 6 5 6 6 3 1 1 5 8 9 8 8 10 12 12 13 15 16 17 19 20
8 8 7 7 7 8 8 7 7 6 6 6 6 5 5 5 5 4 3 3 2 2 2 1 1 2 2 2 2 2 2 1 3 4 4 3 3 3 3 3 4 5 6 6 6 7 7 8 9 8 5 4 4 4 5 7 8 6 3 2 1 1 4 5 5 5 6 7 6 5 5 6 8 9 10 10 12 13 14 15 16 16 17 18 20
9 9 8 8 7 7 8 8 8 8 8 7 7 7 6 6 5 5 4 4 3 3 3 2 2 2 2 2 2 2 1 2 2 3 3 2 2 2 2 2 4 6 5 5 5 6 7 7 7 6 5 6 7 8 8 7 7 6 4 2 1 1 2 3 3 4 5 6 6 6 8 9 10 11 12 13 15 17 18 19 19 18 18 19 21
Wind_Direction
203 205 208 210 213 215 215 214 213 213 213 212 211 212 212 209 206 205 205 203 205 211 213 210 207 206 206 205 204 210 215 213 212 215 218 219 218 215 219 230 237 235 232 233 232 229 232 239 242 244 246 245 244 248 256 259 261 265 270 263 249 260 266 256 252 253 255 258 254 257 267 268 258 244 243 250 260 274 280 282 292 294 289 295 306
207 210 211 213 214 214 214 214 213 214 212 209 207 208 208 205 205 206 206 204 203 206 210 209 206 204 207 210 207 206 214 212 207 211 217 221 220 215 215 224 233 237 239 239 238 235 234 235 238 241 242 242 245 247 250 254 255 257 264 257 239 248 258 252 246 240 240 252 259 260 266 265 258 251 246 250 260 270 273 268 269 277 284 299 307
212 218 219 218 217 217 218 218 216 215 215 213 208 208 207 204 204 205 206 208 204 201 205 206 205 205 206 211 208 205 214 216 207 206 214 221 223 219 217 225 233 238 240 243 243 241 240 236 235 241 244 243 246 250 252 252 251 249 251 255 247 245 249 251 248 242 240 251 257 260 265 261 259 256 251 258 264 262 261 259 256 262 276 292 299
212 222 228 227 223 222 223 221 219 216 214 215 212 208 206 205 206 204 203 206 202 199 205 206 205 207 207 209 206 201 211 218 211 206 209 216 223 222 218 223 237 244 244 245 246 243 240 236 234 238 243 246 245 245 248 249 249 249 247 249 251 254 259 263 256 240 235 246 258 265 267 263 260 257 259 269 266 253 253 254 251 257 272 287 296
211 222 233 234 228 225 223 221 222 219 213 214 212 206 203 203 206 207 207 205 198 197 205 205 203 206 207 210 208 203 208 215 214 211 210 213 222 226 222 220 235 248 249 247 246 243 239 235 235 238 240 244 246 245 247 248 247 247 245 241 241 250 261 264 256 245 240 245 254 261 266 264 261 259 264 269 260 249 255 252 245 255 274 288 293
215 222 227 232 232 226 221 218 219 220 216 214 212 207 203 203 206 210 213 209 199 197 202 202 203 206 206 208 209 207 209 213 215 215 214 215 221 226 227 224 230 242 249 248 245 243 239 234 236 242 240 241 245 245 246 248 247 247 246 245 243 241 243 249 250 249 249 250 250 256 265 267 263 261 264 267 259 253 258 253 246 255 272 280 280
221 222 220 225 229 222 218 215 216 223 222 216 212 209 207 207 208 209 211 210 203 197 199 202 203 206 207 205 205 206 209 214 220 220 216 218 222 225 230 230 230 233 239 244 246 244 241 233 232 239 243 243 242 242 246 249 249 248 246 245 247 244 240 244 250 251 251 253 256 261 266 266 263 262 265 266 259 255 255 250 246 254 266 271 273
224 223 224 225 223 221 221 219 220 226 224 214 211 211 211 210 208 205 205 209 208 200 199 203 203 205 210 207 204 205 207 212 220 221 216 216 221 227 230 230 230 232 234 239 245 247 247 240 233 234 241 246 246 242 242 245 247 250 249 246 249 251 246 244 249 254 255 256 261 264 264 264 262 260 260 260 255 253 254 252 251 255 260 264 270
224 223 228 227 221 222 224 224 224 222 217 214 213 216 219 216 207 203 203 208 209 201 201 206 204 204 210 209 206 206 207 211 216 218 215 212 214 223 230 230 231 235 236 238 242 247 250 245 237 234 235 243 251 250 246 245 244 246 249 250 250 253 254 247 245 251 254 255 257 259 259 262 264 260 258 259 261 262 261 256 254 254 254 256 262
221 219 222 220 217 216 213 214 215 210 209 213 215 218 222 218 207 204 205 208 207 203 204 207 204 205 209 210 209 208 209 214 216 215 216 215 215 220 227 231 235 238 240 243 244 247 252 253 249 244 236 236 245 250 251 253 250 244 242 244 246 248 252 251 248 249 253 255 256 256 255 257 261 264 265 267 269 270 266 258 254 254 253 252 254
220 222 219 216 216 213 207 206 206 207 210 212 214 220 221 216 211 210 209 207 204 203 207 207 204 206 210 211 211 211 213 218 219 217 217 220 222 225 229 232 237 239 244 251 250 247 253 259 263 262 252 245 246 248 252 257 257 251 243 240 241 243 246 250 252 253 255 257 258 257 258 259 260 262 267 270 269 269 267 263 258 255 254 253 250
223 226 218 213 214 212 215 219 215 214 217 215 218 228 227 215 210 209 207 205 205 206 209 209 207 207 211 213 214 215 216 219 222 225 225 224 225 229 232 234 239 244 248 251 250 246 246 248 253 257 255 253 253 252 253 255 257 257 253 247 245 245 245 247 252 256 256 255 257 261 266 267 262 258 263 268 269 267 267 265 262 258 256 257 256
219 220 213 210 207 202 207 218 218 214 215 215 218 227 231 213 197 199 201 201 205 208 209 209 208 208 214 219 219 221 221 220 225 231 234 233 230 231 232 232 238 245 248 248 249 248 245 244 247 251 251 252 253 253 253 254 256 258 260 257 252 248 246 245 247 252 256 257 260 263 265 265 264 264 266 269 268 268 268 268 268 264 260 260 261
212 213 213 212 209 200 198 202 206 208 211 212 214 220 225 209 188 192 200 201 204 211 214 213 210 210 214 219 220 222 223 223 226 231 235 239 237 236 236 235 235 239 243 247 251 251 247 246 248 252 253 254 256 256 257 258 260 260 261 262 258 252 250 249 248 249 253 256 259 261 262 264 265 268 270 267 266 271 276 275 273 270 268 265 261
211 208 212 217 215 209 205 201 202 210 215 216 215 214 216 210 193 189 192 195 203 215 220 216 215 213 213 216 219 223 224 224 226 229 234 239 240 240 241 241 239 240 243 248 254 256 256 254 251 251 253 254 255 255 257 259 261 262 263 265 265 260 256 254 253 253 253 254 257 260 264 266 268 270 270 267 267 274 278 277 275 272 269 265 260
214 205 209 219 220 214 212 210 209 214 220 222 219 210 205 208 208 202 193 192 201 212 215 214 217 218 217 219 223 226 228 226 223 227 236 239 238 240 243 242 241 243 244 246 249 252 256 258 256 254 253 252 252 252 252 254 256 257 260 264 268 268 263 259 258 259 259 260 262 262 264 267 270 271 269 268 269 272 273 272 270 267 263 259 257
220 212 203 208 218 222 218 215 213 216 220 222 221 216 209 207 209 210 207 205 209 213 213 213 218 221 222 224 225 227 231 230 224 227 237 238 235 238 239 237 240 246 249 251 252 251 250 250 253 257 257 255 254 253 252 253 253 254 256 260 265 267 266 265 266 267 266 264 265 266 266 266 268 270 269 267 266 267 268 269 267 265 260 255 254
217 219 194 183 200 222 223 220 220 222 224 224 223 222 221 217 213 211 212 213 216 219 219 219 221 224 226 226 226 229 232 232 229 230 234 235 237 241 240 239 245 252 255 259 260 259 257 252 250 252 256 259 260 259 255 254 254 254 254 257 260 262 263 267 271 272 272 270 267 266 265 264 264 265 265 262 260 262 267 270 270 266 259 254 257
206 212 184 162 168 197 214 221 224 225 225 228 229 227 225 225 224 221 219 217 217 218 220 223 226 229 231 232 233 235 237 237 236 236 237 237 238 241 242 245 251 253 255 258 260 261 262 261 258 256 255 256 258 260 260 258 256 254 252 253 257 259 262 266 270 272 273 273 273 269 264 264 264 264 263 263 262 264 266 266 266 264 258 255 257
220 199 175 154 150 168 201 216 218 220 223 228 233 231 227 228 229 230 228 226 225 223 223 225 227 230 232 233 235 238 241 242 241 242 244 245 244 242 243 246 251 254 256 258 259 259 261 263 263 264 263 260 259 258 259 260 259 255 252 251 254 259 264 266 269 270 270 271 274 273 270 268 266 261 260 260 260 260 260 261 260 259 257 255 254
218 212 244 198 175 179 212 218 212 216 222 226 231 233 231 231 234 236 236 236 237 237 235 234 234 235 236 236 237 238 240 241 241 241 243 244 244 244 244 245 247 251 255 257 258 260 261 261 261 263 265 266 267 264 262 261 261 260 258 256 257 261 264 266 267 268 268 269 272 272 271 269 265 259 256 258 260 261 261 260 258 255 253 251 249
211 204 182 202 201 200 220 223 217 217 221 224 230 237 239 239 239 239 240 240 241 242 243 244 244 245 245 245 245 245 244 244 244 244 243 243 243 245 246 246 246 248 251 254 257 259 261 261 260 261 262 265 268 269 268 266 264 265 265 264 264 264 264 265 266 265 262 263 265 266 266 265 265 263 260 262 265 266 263 261 259 257 254 252 252
211 181 158 174 217 206 191 206 216 218 219 222 229 237 243 246 244 241 242 243 244 245 246 247 249 250 251 251 251 252 252 252 252 252 252 251 249 249 250 250 249 249 249 251 254 257 260 261 260 260 260 261 262 264 266 266 265 265 266 267 270 269 265 264 263 261 261 262 263 263 263 263 264 263 263 264 267 266 264 262 260 256 254 253 253
137 152 158 177 201 195 182 193 210 218 223 225 227 230 236 242 243 243 243 244 247 249 250 251 251 253 256 257 257 257 258 258 259 260 260 260 259 257 257 257 256 254 252 253 253 255 257 259 259 258 257 257 257 257 258 259 260 261 263 265 267 267 264 262 261 260 262 263 262 262 262 262 262 264 265 266 265 263 262 261 257 253 251 252 250
153 163 177 194 209 206 200 210 222 231 238 237 233 231 232 236 240 242 245 249 252 256 257 257 257 258 260 262 262 262 261 261 262 262 263 264 263 261 260 261 261 259 258 258 257 257 257 257 257 256 255 255 256 256 256 255 255 256 259 262 262 261 259 259 260 260 259 259 259 260 261 262 262 264 266 266 261 257 255 253 250 248 247 248 247
178 191 207 217 221 217 217 234 247 253 254 254 250 242 237 235 234 232 236 241 246 251 255 259 263 265 267 269 269 269 268 267 267 268 268 267 266 265 263 263 263 262 262 262 261 260 259 258 258 257 256 255 255 257 258 258 257 257 257 257 257 256 257 258 258 258 257 257 257 258 261 264 264 265 265 262 258 257 254 247 245 247 247 245 244
197 204 219 226 230 231 238 253 262 261 257 259 259 248 237 233 234 237 239 239 242 246 249 252 257 260 263 266 268 270 270 270 273 275 274 270 267 266 266 265 263 261 260 260 261 260 260 259 258 259 258 257 256 256 258 259 259 259 259 258 255 254 257 259 258 255 255 257 259 261 264 265 264 264 263 258 256 257 256 251 248 247 244 241 240
220 213 221 229 230 239 249 257 262 261 255 256 263 262 249 237 236 245 249 247 246 247 244 240 241 243 246 252 258 264 266 267 270 273 272 270 267 265 264 263 262 261 260 259 259 259 258 257 257 258 258 259 258 257 257 258 259 259 260 260 259 258 259 260 258 257 257 259 261 262 264 264 263 263 260 257 257 257 256 253 249 242 238 238 240
231 218 222 228 230 244 258 257 249 251 257 261 265 269 268 258 245 241 244 248 252 254 250 247 247 249 252 257 264 271 274 274 274 273 271 269 267 266 264 263 262 261 261 260 259 258 257 256 256 256 257 258 259 260 261 260 261 261 260 260 261 261 261 260 259 258 260 260 260 261 262 264 264 263 260 258 256 255 253 250 242 234 233 236 236
234 226 235 245 244 250 261 259 238 231 240 255 264 268 270 269 260 250 250 255 259 259 257 257 261 265 268 273 277 281 286 287 286 283 279 275 271 267 265 263 260 258 257 258 258 258 257 256 255 254 256 257 258 259 260 261 263 265 265 265 263 261 260 260 260 260 260 259 259 259 260 261 262 260 258 257 255 253 252 247 237 232 237 238 231
234 248 251 253 249 244 248 253 249 242 237 239 253 267 272 272 265 260 264 269 266 261 261 266 272 275 276 284 291 293 299 305 305 303 299 293 285 276 267 262 258 255 253 252 252 253 253 254 253 252 253 254 256 255 255 259 263 265 267 268 266 263 261 260 260 260 259 257 256 256 256 258 260 259 257 255 252 249 248 244 237 236 241 239 231
244 255 252 254 253 242 235 237 245 251 250 249 255 262 263 264 262 260 264 271 273 276 278 277 279 284 291 307 320 320 321 322 321 319 314 308 302 295 280 266 259 255 251 249 248 248 248 247 248 249 250 251 252 253 254 258 262 265 269 269 268 267 266 264 263 261 257 254 254 254 253 254 257 259 258 256 252 248 246 243 235 228 226 225 222
252 259 258 260 261 253 246 245 248 250 246 247 255 257 252 256 261 259 257 258 264 276 288 286 283 294 311 325 331 332 331 331 331 333 332 326 318 310 298 280 266 260 256 252 250 250 249 247 247 247 248 249 251 251 252 253 257 265 272 273 272 271 268 266 264 261 257 253 252 253 254 254 257 259 257 253 250 248 247 243 233 222 219 220 216
249 255 255 255 257 261 263 258 251 247 243 242 249 258 257 255 256 256 253 255 261 269 285 298 300 306 318 327 330 327 327 332 338 343 348 348 342 332 317 299 280 270 264 260 257 255 255 254 252 250 249 251 253 254 255 257 262 270 273 274 274 273 270 267 266 265 263 259 255 255 256 256 258 259 255 249 246 243 241 240 236 227 223 222 217
239 249 252 248 244 251 264 260 247 241 241 241 244 254 258 254 251 249 247 250 260 268 281 298 310 318 322 324 326 326 329 337 344 351 356 360 0 355 343 327 307 291 280 273 267 262 259 257 255 253 252 253 256 259 260 263 269 274 275 274 274 272 270 270 271 271 269 265 261 260 259 257 257 259 255 249 244 239 234 234 232 224 217 215 211
224 241 266 267 251 243 243 245 242 236 236 240 244 252 259 256 250 246 244 243 246 250 258 274 295 310 317 324 328 329 335 345 352 358 2 5 6 5 2 0 354 341 324 309 298 288 275 264 258 255 254 255 259 264 267 268 270 272 273 273 273 273 273 273 272 273 272 269 265 262 257 252 252 252 248 242 237 234 230 228 221 213 207 205 201
212 219 250 265 265 256 246 244 247 249 251 254 253 250 251 251 248 244 242 240 240 241 241 247 268 299 314 329 347 349 354 8 15 9 7 9 8 7 6 5 2 357 353 346 338 333 315 287 267 257 253 253 257 262 264 265 266 268 271 273 274 275 277 276 274 272 270 265 257 249 244 243 245 245 242 238 234 229 226 222 213 203 198 196 191
132 182 224 241 259 272 264 256 260 261 257 255 254 252 249 245 241 239 235 230 231 236 233 222 214 259 299 23 62 54 35 31 29 17 7 8 8 7 8 9 7 8 11 11 5 359 348 324 292 267 256 255 258 262 264 265 267 271 273 275 276 277 278 277 273 267 261 256 252 244 239 239 240 237 235 235 232 225 220 216 209 200 191 186 185
83 69 85 236 297 17 36 306 284 280 267 259 261 265 262 251 242 238 234 228 230 230 210 169 153 158 150 114 87 74 60 51 50 48 37 21 10 7 10 17 20 20 19 19 17 17 17 15 9 344 309 295 289 285 281 280 279 279 278 277 275 274 274 273 266 258 254 256 259 258 250 239 227 222 222 224 223 220 215 210 203 195 186 183 183
72 55 57 56 47 50 54 11 306 296 284 275 269 265 264 261 254 244 234 224 215 198 165 151 160 158 138 111 92 84 72 55 50 51 47 36 27 22 21 23 25 27 27 25 23 25 29 33 36 36 35 34 30 18 7 359 347 343 346 335 301 286 288 281 260 250 251 251 245 234 221 203 195 198 206 212 214 211 206 197 189 185 182 179 178
54 36 44 46 38 36 32 341 311 292 270 268 270 264 257 254 253 249 237 213 180 160 153 156 159 148 126 107 95 88 77 59 49 50 48 40 32 27 25 25 25 28 34 36 32 31 36 42 47 49 49 47 46 43 39 39 40 41 42 39 27 13 360 336 298 271 253 228 199 180 175 178 179 181 188 197 199 197 193 188 184 182 181 179 179
40 17 33 38 30 20 356 313 296 286 275 273 275 273 261 248 237 223 197 168 152 145 143 141 136 127 114 102 92 84 76 67 57 57 60 56 44 33 29 29 29 31 38 45 45 42 44 47 52 55 54 51 48 46 44 43 42 41 45 51 52 51 52 48 34 12 208 213 196 169 161 164 167 171 177 183 186 185 184 183 182 180 178 179 182
165 116 66 46 23 20 16 13 344 265 290 307 306 302 283 224 191 161 143 139 139 136 132 127 124 119 108 96 90 85 79 72 62 58 67 74 71 57 45 40 37 35 37 44 47 48 51 56 59 59 57 55 54 51 47 45 42 39 42 49 54 58 66 80 106 126 127 153 168 157 154 156 159 165 172 176 179 181 181 180 181 180 178 181 182
163 146 112 96 63 35 36 49 68 85 76 68 75 92 101 112 130 134 129 126 129 131 129 121 113 108 100 92 89 86 83 77 70 65 64 62 60 61 61 59 55 45 37 35 37 37 38 44 51 55 55 53 51 51 53 54 53 51 50 49 49 53 64 81 104 111 105 115 136 143 148 152 154 161 170 173 174 177 178 178 180 181 180 181 179
159 175 163 134 28 13 38 64 79 89 93 94 97 104 108 112 121 126 121 116 114 115 116 112 106 101 97 90 83 80 83 83 76 71 67 59 51 51 51 51 54 56 52 48 46 42 36 35 40 45 47 44 40 40 44 49 51 50 48 47 50 58 66 68 71 80 91 107 125 135 143 149 151 160 170 173 171 173 178 182 187 190 185 179 178
184 191 181 173 285 344 14 71 90 97 100 101 105 113 119 123 129 131 125 120 118 120 125 135 146 150 138 117 85 72 77 79 75 74 74 68 57 53 50 46 46 49 50 50 49 48 48 49 49 49 50 49 44 39 36 39 41 39 36 38 47 56 60 58 55 62 79 95 111 123 129 128 132 148 161 162 158 164 176 179 183 190 186 179 181
198 201 198 194 186 185 225 248 88 94 98 102 113 128 134 132 131 130 125 121 125 135 148 171 189 162 135 127 109 91 89 89 89 86 83 77 68 64 62 59 54 52 54 55 52 47 45 46 48 49 50 52 53 49 45 50 54 47 38 42 52 60 66 65 56 54 66 80 100 117 122 119 120 139 157 157 158 175 196 200 197 202 202 197 197
202 206 204 204 201 195 205 224 227 174 155 148 154 166 167 152 139 139 135 121 102 113 144 205 218 149 133 129 125 119 113 106 96 87 82 79 77 76 72 66 61 57 56 56 57 58 57 54 51 49 47 47 48 47 44 53 70 79 75 66 59 64 84 95 89 74 78 86 93 112 131 144 155 168 182 183 179 184 199 207 208 210 213 213 214
209 209 203 206 211 207 204 206 206 205 204 194 184 185 186 183 183 185 182 184 191 181 181 195 181 158 161 156 136 130 131 125 110 101 96 92 87 85 88 86 80 74 67 59 53 53 54 55 57 57 55 54 55 43 27 30 44 70 101 94 58 63 96 112 122 116 108 112 113 94 150 172 175 180 199 211 202 197 206 217 220 221 221 222 225
211 209 205 210 213 209 207 211 212 211 210 204 200 203 202 198 201 208 205 205 213 210 203 217 230 205 196 181 150 140 146 149 123 108 107 116 117 110 113 110 95 88 88 86 79 69 57 52 55 51 33 21 31 26 17 28 42 56 77 94 70 95 123 142 159 152 141 151 171 182 187 194 194 196 205 212 210 210 215 221 225 227 227 226 227
210 203 205 216 220 213 211 215 215 212 212 211 209 209 209 210 215 218 212 212 226 235 230 232 236 229 216 202 190 183 174 164 145 119 116 134 142 121 101 79 73 73 62 42 45 54 51 48 50 37 1 355 17 24 20 24 34 36 36 41 44 200 181 184 197 193 187 198 213 214 209 213 219 221 221 223 223 223 226 229 230 233 236 238 239
Height
1497 1499 1501 1503 1505 1507 1509 1511 1513 1515 1517 1518 1520 1522 1523 1525 1527 1529 1531 1533 1535 1537 1539 1541 1542 1544 1545 1546 1548 1550 1551 1552 1554 1555 1557 1558 1560 1561 1563 1564 1565 1566 1567 1568 1569 1570 1571 1572 1573 1574 1575 1576 1576 1577 1578 1579 1579 1579 1579 1579 1580 1580 1579 1579 1580 1580 1580 1580 1580 1580 1579 1580 1579 1579 1579 1578 1578 1578 1578 1578 1577 1576 1576 1576 1575
1497 1498 1500 1502 1504 1506 1508 1510 1511 1513 1515 1516 1518 1520 1522 1523 1525 1527 1529 1531 1533 1535 1537 1539 1540 1542 1543 1545 1546 1548 1549 1550 1552 1554 1555 1557 1558 1560 1561 1562 1563 1564 1565 1566 1567 1568 1569 1570 1571 1572 1573 1574 1574 1575 1576 1577 1578 1578 1578 1577 1578 1578 1577 1577 1578 1578 1577 1577 1578 1578 1578 1578 1578 1578 1578 1578 1577 1577 1577 1577 1576 1575 1574 1575 1575
1497 1499 1499 1501 1502 1504 1506 1507 1509 1511 1513 1514 1516 1518 1520 1522 1524 1525 1527 1530 1532 1534 1536 1538 1539 1541 1542 1543 1545 1547 1548 1549 1551 1552 1554 1555 1556 1558 1560 1561 1561 1562 1563 1564 1565 1566 1567 1568 1569 1570 1571 1571 1572 1573 1574 1575 1576 1576 1576 1576 1576 1576 1575 1576 1576 1576 1576 1576 1576 1576 1577 1577 1577 1577 1577 1577 1577 1576 1575 1575 1575 1574 1573 1574 1574
1498 1499 1499 1500 1501 1503 1505 1506 1507 1509 1511 1513 1514 1516 1518 1521 1523 1524 1526 1528 1529 1532 1535 1537 1538 1539 1540 1542 1544 1545 1546 1547 1549 1550 1552 1553 1554 1556 1558 1559 1559 1560 1561 1562 1563 1564 1565 1565 1567 1568 1569 1570 1570 1571 1572 1573 1574 1574 1574 1575 1575 1574 1573 1574 1574 1574 1574 1575 1574 1574 1575 1575 1575 1575 1575 1575 1575 1575 1574 1574 1574 1573 1572 1573 1573
1498 1499 1500 1501 1502 1503 1504 1505 1506 1507 1509 1511 1513 1515 1517 1520 1521 1522 1524 1527 1528 1531 1534 1536 1537 1538 1539 1540 1542 1543 1544 1546 1547 1548 1550 1551 1553 1554 1555 1557 1557 1558 1559 1560 1561 1562 1562 1563 1565 1566 1567 1568 1568 1569 1570 1571 1572 1572 1572 1573 1573 1572 1572 1571 1572 1572 1573 1573 1573 1573 1573 1574 1574 1573 1573 1574 1573 1573 1573 1573 1573 1572 1571 1571 1572
1497 1498 1499 1500 1500 1502 1503 1504 1504 1505 1507 1509 1511 1513 1516 1518 1519 1521 1523 1526 1528 1530 1532 1534 1535 1537 1538 1539 1541 1542 1543 1544 1545 1546 1548 1549 1551 1552 1553 1555 1556 1557 1557 1558 1558 1559 1560 1561 1563 1564 1565 1566 1566 1567 1568 1569 1570 1570 1571 1571 1571 1571 1571 1570 1570 1571 1571 1571 1571 1571 1571 1572 1572 1571 1572 1572 1572 1572 1572 1572 1571 1570 1569 1570 1570
1493 1494 1496 1496 1498 1500 1502 1503 1503 1504 1506 1508 1510 1512 1514 1516 1518 1520 1522 1524 1526 1528 1530 1533 1534 1535 1537 1538 1539 1540 1542 1543 1543 1545 1546 1547 1549 1550 1551 1553 1554 1555 1556 1556 1556 1557 1558 1559 1560 1561 1563 1563 1564 1565 1566 1567 1568 1569 1569 1569 1569 1569 1569 1569 1568 1569 1570 1570 1570 1570 1569 1569 1570 1569 1570 1570 1570 1570 1570 1569 1569 1568 1568 1568 1568
1490 1492 1494 1495 1497 1499 1501 1501 1502 1503 1505 1507 1508 1510 1512 1514 1516 1518 1520 1522 1524 1525 1528 1531 1532 1533 1535 1536 1537 1539 1540 1541 1542 1543 1544 1546 1547 1549 1550 1551 1553 1553 1554 1555 1555 1555 1556 1557 1558 1559 1560 1561 1562 1563 1564 1565 1566 1567 1567 1568 1568 1568 1568 1568 1567 1567 1568 1568 1568 1568 1568 1567 1568 1567 1567 1567 1567 1567 1567 1567 1567 1567 1567 1566 1566
1489 1491 1493 1495 1497 1498 1499 1500 1501 1502 1504 1505 1507 1508 1510 1512 1514 1516 1518 1521 1523 1524 1526 1529 1530 1532 1533 1534 1536 1537 1538 1539 1540 1541 1543 1544 1546 1548 1549 1550 1551 1551 1552 1553 1554 1553 1554 1555 1555 1556 1557 1559 1560 1560 1561 1563 1564 1565 1566 1566 1566 1566 1566 1566 1566 1566 1566 1567 1567 1567 1566 1566 1566 1565 1565 1565 1565 1566 1566 1566 1566 1566 1566 1565 1565
1489 1491 1492 1494 1495 1496 1497 1498 1499 1501 1502 1503 1505 1506 1508 1509 1511 1514 1517 1519 1521 1523 1525 1527 1528 1530 1532 1533 1534 1535 1536 1538 1538 1539 1541 1542 1544 1546 1547 1548 1549 1550 1550 1551 1552 1552 1552 1553 1553 1554 1555 1556 1557 1558 1559 1560 1561 1563 1564 1564 1564 1564 1564 1564 1564 1564 1565 1565 1565 1565 1565 1564 1564 1564 1564 1564 1564 1565 1565 1565 1565 1564 1564 1564 1563
1489 1490 1492 1492 1493 1493 1494 1496 1498 1500 1501 1502 1504 1505 1507 1508 1510 1513 1516 1518 1520 1522 1524 1525 1527 1529 1530 1531 1532 1533 1535 1536 1536 1537 1539 1541 1542 1544 1545 1547 1547 1548 1548 1549 1550 1550 1551 1551 1551 1552 1553 1554 1555 1556 1556 1557 1559 1560 1561 1562 1562 1562 1562 1562 1562 1562 1563 1563 1563 1563 1562 1562 1562 1563 1563 1563 1563 1563 1563 1563 1563 1563 1562 1562 1561
1490 1491 1492 1492 1493 1493 1494 1495 1497 1500 1501 1502 1503 1504 1506 1509 1511 1513 1515 1517 1519 1520 1522 1524 1526 1527 1528 1529 1530 1531 1533 1534 1535 1536 1538 1539 1541 1542 1543 1545 1545 1546 1546 1547 1547 1548 1549 1550 1550 1551 1551 1552 1553 1553 1554 1555 1556 1557 1558 1559 1559 1560 1560 1560 1560 1560 1560 1561 1561 1560 1560 1559 1560 1561 1561 1561 1561 1561 1561 1561 1561 1561 1560 1560 1559
1491 1492 1493 1494 1495 1495 1496 1496 1498 1500 1500 1502 1503 1504 1507 1510 1511 1513 1515 1516 1518 1520 1521 1523 1524 1526 1527 1527 1528 1530 1531 1533 1534 1535 1536 1537 1539 1540 1541 1542 1543 1544 1544 1544 1545 1546 1546 1547 1548 1549 1549 1550 1551 1551 1552 1552 1553 1554 1554 1555 1556 1556 1557 1557 1557 1557 1557 1558 1558 1557 1558 1558 1558 1559 1560 1560 1559 1560 1559 1559 1558 1558 1558 1558 1558
1491 1492 1493 1494 1495 1496 1497 1498 1499 1500 1500 1502 1503 1504 1507 1509 1510 1512 1512 1514 1516 1519 1521 1522 1523 1524 1525 1526 1527 1529 1530 1531 1533 1534 1535 1536 1537 1538 1539 1540 1541 1542 1542 1542 1543 1544 1544 1545 1545 1546 1547 1548 1548 1549 1550 1550 1551 1551 1551 1551 1552 1552 1553 1553 1554 1554 1554 1554 1554 1554 1555 1556 1556 1557 1558 1558 1557 1557 1557 1557 1557 1556 1556 1556 1556
1491 1492 1494 1495 1495 1496 1497 1499 1500 1500 1500 1502 1503 1505 1507 1508 1509 1510 1510 1512 1515 1517 1519 1520 1521 1522 1523 1524 1526 1527 1528 1529 1531 1532 1533 1534 1535 1536 1537 1538 1538 1539 1539 1540 1541 1541 1542 1542 1542 1543 1544 1545 1546 1547 1547 1548 1548 1548 1548 1548 1549 1549 1549 1549 1550 1551 1551 1552 1552 1552 1552 1553 1553 1554 1555 1555 1555 1555 1554 1554 1555 1554 1554 1554 1554
1490 1491 1493 1494 1495 1496 1497 1498 1499 1500 1500 1501 1502 1504 1506 1507 1508 1509 1509 1511 1513 1515 1517 1518 1519 1520 1520 1522 1523 1524 1525 1526 1527 1529 1530 1531 1532 1533 1534 1535 1536 1536 1536 1537 1538 1538 1539 1540 1540 1541 1542 1542 1543 1544 1545 1546 1546 1546 1546 1545 1546 1546 1546 1546 1547 1548 1549 1549 1549 1550 1550 1550 1550 1551 1552 1552 1552 1552 1552 1552 1552 1552 1551 1551 1551
1489 1490 1492 1494 1494 1495 1496 1496 1497 1498 1499 1500 1501 1503 1505 1507 1508 1508 1509 1511 1512 1514 1515 1515 1516 1517 1518 1519 1520 1520 1521 1523 1524 1525 1526 1527 1529 1531 1533 1533 1533 1533 1534 1534 1535 1536 1536 1537 1538 1538 1539 1539 1540 1541 1542 1542 1543 1543 1543 1543 1543 1543 1542 1543 1544 1545 1546 1546 1546 1546 1547 1547 1547 1547 1548 1548 1549 1549 1549 1548 1548 1548 1548 1548 1547
1489 1489 1491 1494 1495 1494 1494 1494 1495 1496 1497 1498 1499 1501 1503 1505 1507 1507 1508 1510 1511 1512 1513 1513 1514 1515 1516 1517 1517 1518 1519 1519 1520 1521 1523 1524 1525 1527 1529 1530 1530 1530 1531 1531 1531 1532 1532 1534 1535 1535 1535 1536 1536 1537 1538 1539 1539 1540 1540 1540 1540 1540 1540 1541 1542 1542 1543 1543 1543 1543 1543 1543 1543 1544 1544 1544 1546 1547 1546 1544 1544 1544 1544 1545 1545
1488 1488 1490 1492 1494 1493 1492 1492 1494 1494 1495 1496 1497 1498 1500 1503 1504 1505 1506 1507 1508 1509 1510 1511 1511 1512 1513 1514 1515 1516 1516 1517 1518 1519 1520 1521 1522 1523 1525 1526 1526 1526 1527 1527 1528 1528 1528 1529 1530 1531 1532 1532 1533 1534 1534 1535 1536 1536 1537 1537 1536 1536 1537 1538 1539 1539 1539 1539 1539 1539 1540 1540 1541 1541 1540 1540 1541 1542 1540 1539 1539 1539 1541 1542 1542
1487 1488 1489 1491 1492 1492 1490 1490 1492 1493 1494 1494 1495 1496 1498 1499 1501 1502 1503 1504 1505 1506 1507 1508 1509 1509 1510 1512 1512 1513 1514 1515 1516 1517 1518 1519 1520 1521 1522 1523 1522 1523 1523 1523 1524 1524 1525 1525 1526 1527 1528 1528 1529 1530 1530 1531 1532 1532 1533 1533 1533 1533 1534 1535 1535 1535 1535 1535 1535 1536 1536 1537 1537 1537 1536 1535 1535 1536 1535 1535 1535 1536 1538 1539 1538
1486 1488 1489 1489 1490 1490 1489 1489 1490 1491 1492 1492 1493 1494 1495 1496 1498 1499 1500 1501 1502 1503 1504 1505 1506 1507 1508 1508 1509 1510 1511 1512 1513 1514 1515 1516 1517 1518 1519 1519 1519 1520 1520 1520 1520 1521 1521 1522 1522 1523 1524 1524 1525 1526 1526 1527 1528 1528 1529 1529 1529 1530 1531 1532 1532 1532 1532 1532 1532 1532 1533 1533 1533 1533 1532 1531 1531 1532 1532 1531 1531 1531 1532 1532 1532
1486 1487 1488 1488 1489 1489 1489 1489 1489 1489 1490 1491 1491 1492 1493 1494 1495 1496 1498 1499 1500 1501 1502 1503 1503 1504 1505 1506 1506 1507 1508 1509 1510 1511 1512 1512 1513 1514 1514 1515 1516 1516 1516 1516 1516 1517 1517 1518 1519 1520 1521 1521 1521 1522 1522 1523 1524 1524 1524 1524 1526 1527 1527 1528 1528 1528 1528 1529 1529 1528 1528 1528 1528 1528 1527 1526 1527 1527 1527 1527 1527 1527 1526 1526 1526
1485 1486 1487 1488 1488 1489 1489 1488 1489 1490 1490 1490 1491 1492 1492 1493 1494 1495 1496 1497 1497 1498 1499 1500 1501 1501 1502 1502 1503 1504 1504 1505 1506 1507 1508 1508 1509 1509 1510 1511 1512 1512 1512 1512 1512 1513 1514 1515 1516 1517 1517 1518 1518 1518 1519 1519 1519 1519 1519 1520 1522 1523 1523 1524 1524 1523 1524 1525 1525 1524 1523 1523 1522 1522 1522 1522 1522 1523 1523 1523 1524 1523 1523 1523 1523
1484 1485 1486 1487 1487 1488 1488 1488 1489 1489 1490 1490 1491 1491 1492 1492 1493 1494 1494 1495 1495 1496 1497 1497 1498 1498 1499 1499 1500 1500 1501 1502 1502 1503 1503 1504 1505 1505 1506 1506 1507 1508 1508 1507 1508 1509 1509 1510 1511 1512 1512 1512 1513 1513 1514 1514 1515 1515 1515 1516 1517 1518 1518 1519 1519 1519 1519 1520 1519 1518 1517 1517 1517 1517 1517 1517 1518 1521 1522 1522 1521 1520 1520 1519 1519
1483 1484 1485 1485 1486 1487 1488 1488 1488 1489 1489 1489 1490 1490 1491 1491 1491 1492 1493 1493 1494 1494 1494 1495 1495 1495 1496 1496 1496 1497 1498 1498 1498 1499 1499 1500 1500 1500 1501 1501 1502 1503 1503 1503 1504 1504 1504 1505 1505 1506 1507 1507 1508 1508 1508 1509 1510 1510 1511 1512 1512 1513 1513 1514 1514 1515 1515 1514 1513 1512 1512 1512 1513 1513 1513 1513 1513 1516 1519 1520 1519 1517 1516 1515 1514
1483 1483 1484 1484 1485 1486 1486 1487 1487 1488 1488 1488 1488 1489 1489 1489 1490 1491 1491 1491 1492 1492 1492 1493 1493 1493 1493 1493 1493 1493 1493 1494 1494 1494 1495 1495 1495 1495 1496 1496 1497 1498 1497 1498 1498 1498 1499 1499 1500 1500 1502 1502 1503 1503 1503 1503 1504 1505 1505 1507 1507 1507 1508 1508 1509 1509 1509 1508 1508 1507 1507 1508 1508 1509 1509 1509 1508 1508 1510 1513 1513 1512 1511 1510 1510
1481 1482 1483 1483 1484 1485 1485 1486 1486 1486 1487 1487 1487 1487 1487 1488 1488 1489 1489 1489 1490 1490 1490 1491 1491 1491 1491 1490 1490 1490 1489 1490 1490 1490 1490 1491 1490 1491 1491 1491 1491 1492 1492 1492 1492 1492 1493 1494 1494 1495 1496 1497 1498 1498 1497 1498 1498 1499 1499 1500 1501 1502 1502 1503 1503 1503 1503 1503 1503 1502 1503 1504 1504 1504 1504 1505 1504 1503 1502 1503 1505 1505 1505 1506 1507
1480 1481 1482 1482 1483 1483 1484 1484 1484 1485 1485 1485 1485 1485 1486 1486 1486 1487 1487 1487 1487 1488 1488 1488 1489 1489 1488 1488 1487 1487 1486 1487 1487 1487 1487 1486 1486 1486 1486 1486 1486 1486 1486 1486 1485 1486 1486 1487 1488 1490 1491 1491 1491 1491 1491 1491 1492 1492 1493 1493 1494 1495 1496 1497 1497 1497 1498 1499 1498 1498 1499 1499 1499 1499 1499 1499 1500 1498 1496 1497 1498 1498 1499 1501 1502
1478 1479 1480 1481 1482 1482 1482 1483 1483 1483 1483 1484 1484 1484 1484 1485 1485 1485 1485 1485 1486 1486 1486 1486 1486 1486 1485 1485 1485 1484 1484 1485 1485 1484 1484 1483 1483 1482 1481 1481 1481 1481 1481 1480 1480 1480 1481 1481 1482 1484 1484 1485 1485 1485 1485 1486 1486 1486 1487 1487 1488 1488 1489 1490 1490 1491 1492 1493 1493 1492 1493 1493 1493 1494 1494 1494 1494 1493 1492 1492 1493 1493 1494 1495 1496
1477 1478 1478 1479 1480 1481 1481 1481 1482 1482 1482 1482 1483 1483 1483 1484 1484 1484 1484 1484 1484 1484 1484 1484 1484 1484 1484 1484 1483 1483 1482 1482 1482 1481 1481 1480 1479 1478 1476 1476 1476 1476 1476 1476 1476 1475 1476 1476 1477 1478 1478 1479 1480 1480 1481 1481 1481 1481 1481 1481 1482 1482 1483 1484 1484 1484 1484 1485 1485 1485 1485 1485 1486 1486 1487 1487 1488 1488 1488 1487 1487 1487 1489 1490 1490
1476 1477 1477 1478 1479 1479 1480 1480 1480 1480 1481 1481 1481 1482 1482 1482 1482 1482 1482 1482 1483 1483 1483 1482 1482 1482 1482 1482 1482 1481 1481 1480 1479 1478 1477 1476 1475 1473 1472 1470 1469 1470 1471 1471 1471 1471 1471 1471 1472 1473 1474 1475 1475 1476 1477 1477 1478 1477 1477 1477 1477 1478 1479 1478 1477 1477 1477 1477 1477 1478 1478 1479 1479 1480 1481 1481 1482 1483 1483 1483 1483 1484 1484 1483 1483
1475 1476 1476 1477 1477 1477 1478 1478 1478 1479 1479 1479 1480 1480 1481 1481 1481 1481 1481 1481 1481 1481 1481 1481 1482 1482 1481 1481 1480 1480 1479 1478 1477 1476 1474 1472 1470 1468 1466 1464 1463 1463 1465 1466 1466 1466 1467 1467 1468 1469 1471 1472 1472 1473 1474 1474 1475 1475 1474 1474 1474 1474 1474 1473 1472 1472 1472 1472 1473 1473 1473 1473 1474 1475 1475 1476 1477 1478 1479 1479 1480 1481 1481 1481 1481
1474 1474 1475 1475 1475 1476 1476 1476 1477 1477 1477 1478 1479 1479 1479 1479 1479 1479 1480 1480 1480 1480 1480 1481 1481 1481 1480 1479 1479 1478 1477 1476 1475 1474 1471 1469 1466 1464 1462 1461 1459 1459 1460 1461 1462 1462 1463 1464 1464 1465 1467 1468 1469 1470 1470 1470 1471 1472 1471 1470 1470 1470 1469 1469 1468 1468 1468 1469 1471 1471 1470 1470 1470 1470 1470 1470 1471 1473 1474 1475 1476 1478 1479 1480 1480
1473 1473 1473 1474 1474 1474 1474 1475 1475 1475 1476 1476 1477 1477 1477 1478 1477 1478 1478 1478 1478 1479 1479 1479 1480 1479 1479 1478 1477 1476 1476 1475 1474 1472 1470 1467 1464 1461 1460 1459 1458 1458 1458 1458 1458 1458 1459 1459 1460 1462 1463 1464 1465 1466 1466 1467 1468 1468 1467 1467 1467 1467 1466 1465 1464 1464 1464 1465 1466 1466 1466 1466 1465 1464 1464 1465 1465 1466 1468 1470 1472 1473 1474 1476 1477
1472 1472 1472 1473 1473 1473 1473 1473 1474 1474 1474 1475 1475 1475 1476 1476 1476 1476 1477 1477 1477 1477 1477 1478 1478 1478 1478 1477 1476 1476 1475 1474 1473 1471 1469 1467 1464 1462 1460 1459 1458 1457 1457 1456 1455 1455 1455 1455 1456 1458 1459 1460 1462 1463 1463 1463 1464 1464 1463 1463 1462 1462 1462 1461 1461 1461 1460 1460 1460 1460 1460 1459 1458 1458 1459 1460 1461 1462 1463 1466 1467 1468 1470 1472 1474
1471 1471 1471 1472 1472 1472 1472 1472 1472 1472 1472 1472 1473 1474 1474 1474 1474 1475 1475 1475 1476 1476 1476 1476 1477 1477 1477 1476 1475 1475 1474 1473 1472 1471 1469 1467 1465 1463 1461 1459 1457 1456 1455 1454 1453 1452 1451 1451 1452 1453 1455 1457 1459 1459 1459 1460 1460 1459 1459 1459 1458 1458 1458 1458 1458 1458 1457 1455 1455 1455 1455 1453 1453 1454 1455 1457 1459 1460 1461 1463 1465 1467 1470 1472 1473
1469 1470 1470 1470 1470 1470 1470 1470 1470 1470 1470 1471 1471 1472 1472 1472 1473 1473 1473 1474 1474 1475 1476 1476 1476 1476 1476 1475 1474 1474 1473 1472 1471 1470 1469 1468 1466 1464 1462 1460 1458 1457 1455 1454 1453 1451 1450 1450 1450 1451 1452 1454 1455 1455 1455 1455 1456 1456 1456 1455 1454 1454 1455 1454 1454 1454 1454 1453 1452 1451 1450 1449 1449 1451 1453 1455 1457 1459 1461 1462 1464 1467 1470 1472 1474
1468 1469 1469 1469 1469 1468 1468 1468 1468 1469 1469 1469 1470 1470 1471 1471 1471 1472 1472 1472 1473 1474 1475 1475 1475 1475 1475 1475 1474 1473 1473 1472 1471 1470 1469 1468 1466 1465 1463 1461 1460 1458 1456 1455 1453 1452 1451 1451 1450 1450 1451 1452 1452 1452 1452 1452 1453 1453 1453 1452 1451 1451 1451 1451 1450 1451 1452 1452 1451 1449 1448 1448 1448 1449 1451 1453 1455 1457 1460 1462 1465 1468 1471 1473 1475
1468 1468 1468 1468 1468 1468 1467 1468 1468 1468 1468 1469 1469 1470 1470 1470 1470 1471 1471 1471 1472 1473 1473 1474 1475 1475 1475 1475 1474 1473 1473 1472 1471 1471 1470 1469 1467 1466 1464 1462 1461 1459 1457 1456 1455 1453 1452 1451 1451 1451 1451 1451 1451 1451 1450 1450 1451 1451 1450 1450 1449 1449 1450 1450 1449 1449 1450 1450 1450 1449 1448 1448 1449 1450 1452 1454 1456 1457 1460 1463 1466 1469 1472 1475 1477
1468 1468 1468 1468 1468 1467 1467 1468 1468 1468 1468 1468 1469 1469 1469 1469 1469 1470 1470 1471 1471 1472 1474 1475 1475 1475 1475 1475 1474 1473 1473 1472 1471 1471 1470 1469 1468 1466 1465 1463 1462 1460 1459 1458 1457 1455 1454 1453 1452 1452 1452 1451 1451 1451 1450 1450 1450 1450 1450 1450 1449 1449 1449 1449 1448 1448 1449 1449 1450 1450 1449 1450 1451 1452 1454 1456 1458 1459 1461 1464 1467 1471 1474 1476 1478
1468 1469 1469 1469 1468 1468 1468 1469 1468 1468 1468 1468 1468 1467 1467 1468 1468 1469 1469 1470 1471 1472 1474 1475 1475 1475 1474 1474 1474 1473 1473 1472 1472 1471 1470 1470 1468 1467 1466 1465 1464 1462 1461 1459 1458 1457 1456 1455 1455 1454 1453 1453 1452 1452 1451 1451 1451 1451 1450 1450 1450 1450 1450 1449 1449 1449 1449 1450 1450 1451 1451 1452 1452 1453 1455 1458 1460 1461 1464 1466 1469 1472 1475 1477 1479
1469 1469 1469 1469 1469 1469 1469 1468 1467 1467 1467 1467 1466 1466 1467 1467 1468 1469 1469 1469 1470 1472 1473 1475 1475 1475 1474 1474 1474 1473 1473 1472 1472 1472 1471 1470 1469 1468 1467 1466 1465 1464 1463 1462 1461 1460 1459 1458 1457 1456 1455 1455 1454 1454 1453 1452 1452 1452 1452 1451 1451 1451 1451 1451 1451 1451 1451 1451 1452 1453 1453 1454 1454 1455 1457 1459 1461 1463 1465 1468 1470 1473 1476 1478 1480
1470 1470 1470 1470 1470 1469 1468 1467 1466 1466 1466 1466 1466 1466 1466 1467 1468 1469 1469 1470 1471 1473 1474 1475 1475 1475 1474 1474 1474 1474 1473 1473 1473 1472 1471 1471 1470 1470 1469 1468 1467 1466 1465 1464 1463 1462 1462 1461 1460 1459 1458 1458 1457 1456 1455 1455 1454 1454 1454 1453 1453 1452 1452 1452 1454 1454 1454 1454 1454 1454 1455 1456 1457 1458 1460 1462 1464 1466 1468 1470 1472 1475 1477 1479 1481
1470 1470 1470 1470 1470 1470 1469 1467 1466 1466 1467 1467 1467 1467 1468 1468 1469 1470 1471 1472 1473 1474 1475 1475 1475 1475 1475 1475 1475 1474 1474 1473 1473 1473 1472 1471 1471 1470 1470 1470 1469 1468 1467 1466 1466 1465 1464 1463 1462 1461 1460 1460 1460 1459 1458 1458 1457 1456 1456 1455 1454 1454 1454 1455 1456 1457 1456 1456 1456 1456 1457 1458 1459 1461 1463 1465 1466 1468 1470 1472 1474 1476 1478 1480 1482
1470 1470 1470 1470 1470 1470 1470 1469 1468 1468 1468 1469 1469 1469 1470 1471 1471 1472 1472 1473 1474 1474 1475 1475 1475 1476 1476 1475 1475 1475 1474 1474 1474 1474 1473 1472 1472 1471 1471 1471 1470 1470 1469 1469 1468 1468 1467 1466 1465 1464 1463 1462 1462 1461 1461 1460 1459 1458 1458 1457 1457 1457 1457 1458 1459 1459 1458 1458 1458 1458 1459 1461 1462 1464 1466 1468 1470 1471 1473 1474 1476 1477 1478 1480 1482
1469 1470 1470 1470 1470 1470 1470 1470 1470 1470 1470 1471 1472 1472 1472 1473 1473 1473 1474 1474 1474 1475 1476 1476 1476 1476 1476 1476 1476 1476 1475 1475 1475 1474 1474 1474 1474 1473 1473 1472 1472 1471 1471 1470 1470 1470 1469 1468 1468 1467 1466 1465 1465 1464 1463 1462 1462 1461 1461 1460 1460 1460 1460 1460 1461 1461 1461 1461 1461 1462 1463 1464 1466 1467 1469 1470 1472 1473 1474 1475 1476 1478 1479 1481 1483
1468 1469 1470 1470 1471 1471 1471 1471 1471 1471 1472 1472 1473 1474 1474 1474 1474 1474 1475 1475 1475 1476 1476 1476 1477 1476 1476 1477 1477 1476 1476 1476 1476 1475 1475 1475 1475 1475 1474 1474 1473 1473 1472 1472 1472 1471 1471 1470 1469 1469 1468 1468 1467 1467 1466 1466 1465 1465 1464 1464 1463 1463 1463 1464 1464 1464 1464 1464 1465 1465 1466 1467 1469 1470 1472 1473 1473 1475 1476 1477 1477 1479 1480 1481 1482
1467 1468 1468 1469 1470 1471 1471 1471 1471 1471 1472 1472 1473 1474 1475 1475 1475 1475 1475 1476 1476 1476 1476 1477 1477 1477 1477 1477 1477 1477 1477 1477 1477 1476 1476 1476 1476 1476 1476 1475 1475 1474 1474 1473 1473 1473 1472 1472 1471 1470 1470 1470 1469 1468 1468 1468 1468 1467 1467 1467 1467 1467 1467 1467 1468 1468 1468 1468 1468 1469 1469 1470 1471 1473 1473 1474 1475 1476 1477 1478 1479 1479 1480 1481 1482
1466 1467 1467 1468 1469 1470 1470 1471 1471 1472 1472 1473 1474 1474 1475 1475 1475 1476 1476 1476 1476 1476 1477 1477 1477 1477 1478 1478 1477 1477 1477 1477 1477 1477 1477 1477 1477 1477 1477 1476 1476 1476 1475 1474 1474 1474 1473 1473 1472 1472 1471 1471 1470 1470 1469 1469 1469 1469 1468 1468 1469 1469 1469 1469 1470 1470 1471 1471 1472 1472 1472 1473 1474 1475 1475 1476 1476 1477 1478 1479 1479 1480 1480 1481 1481
1465 1465 1466 1467 1468 1468 1469 1470 1471 1471 1472 1473 1473 1474 1474 1475 1475 1476 1476 1476 1476 1477 1477 1477 1477 1477 1477 1477 1477 1477 1478 1477 1477 1477 1477 1477 1477 1477 1477 1477 1476 1476 1476 1475 1475 1475 1474 1474 1473 1473 1472 1471 1471 1471 1471 1471 1470 1470 1470 1470 1470 1470 1470 1471 1471 1472 1472 1473 1473 1473 1473 1474 1475 1475 1476 1476 1476 1477 1477 1477 1478 1478 1479 1479 1480
1463 1464 1465 1466 1467 1468 1468 1469 1470 1470 1471 1472 1472 1473 1474 1474 1475 1475 1475 1476 1476 1476 1476 1477 1477 1477 1477 1477 1477 1477 1477 1477 1478 1478 1477 1477 1477 1477 1477 1477 1477 1477 1476 1476 1475 1475 1475 1475 1474 1473 1472 1472 1472 1472 1472 1472 1472 1471 1471 1471 1471 1471 1471 1471 1472 1472 1472 1473 1473 1473 1473 1473 1474 1474 1474 1474 1475 1475 1475 1475 1476 1476 1477 1477 1477